[[{"header":{"parameterUnit":"m.s-1","parameterCategory":2,"la1":30.2991,"la2":30.254,"lo1":-89.0895,"lo2":-89.0444,"dy":0.0017,"dx":0.0017,"nx":28,"ny":28,"refTime":"2024-03-06T03:00:00:Z","depth":"0","parameterNumber":2,"parameterNumberName":"U-component_of_CURRENTS"},"data":[0,0,0,0,0,0,0,0,0,0,0,0,0,0,0,0,0,0,0,0,0,0,0,0,0,0,0,0,0,0,0,0,0,0,0,0,0,0,0,0,0,0,0,0,0,0,0,0,0,0,0,0,0,0,0,0,0,0,-0.198,-0.198,0,-0.2025,-0.2026,-0.2026,-0.2013,-0.2012,-0.2011,-0.201,-0.1996,-0.1997,-0.1997,0,0,0,0,0,0,0,0,0,0,0,0,0,-0.1895,-0.1897,-0.198,-0.198,-0.1981,-0.2025,-0.2026,-0.2026,-0.2014,-0.2012,-0.2011,-0.201,-0.1996,-0.1997,-0.1997,0,0,0,0,0,0,0,0,0,0,0,0,0,-0.1936,-0.1897,-0.198,-0.1979,-0.1979,-0.2025,-0.2026,-0.2027,-0.2014,-0.2012,-0.2011,-0.2009,-0.1996,-0.1997,-0.1998,-0.2033,0,0,-0.2,-0.2,0,0,0,0,0,0,0,0,-0.1934,-0.1939,-0.1979,-0.1979,-0.198,-0.2011,-0.1991,-0.2025,-0.2014,-0.2001,-0.201,-0.2009,-0.1997,-0.1997,-0.2011,-0.2032,-0.2031,-0.2,-0.2001,-0.2001,-0.2001,0,0,0,0,0,0,0,-0.1931,-0.1937,-0.1998,-0.1979,-0.198,-0.1981,-0.1985,-0.1998,-0.2006,-0.2002,-0.2001,-0.2006,-0.1996,-0.201,-0.201,-0.2031,-0.2,-0.2001,-0.2001,-0.2002,-0.2084,-0.2085,0,0,0,0,0,0,-0.1925,-0.1935,-0.1997,-0.2,-0.1952,-0.1984,-0.1988,-0.2003,-0.2007,-0.2007,-0.2007,-0.2005,-0.201,-0.2009,-0.201,-0.205,-0.2001,-0.2002,-0.2002,-0.2082,-0.2084,-0.2086,0,0,0,0,0,0,-0.1923,-0.1931,-0.1995,-0.1967,-0.1975,-0.1987,-0.2004,-0.2005,-0.2016,-0.2011,-0.201,-0.2016,-0.2008,-0.2008,-0.2036,-0.2049,-0.2002,-0.2003,-0.208,-0.2082,-0.2085,-0.2132,0,0,0,0,0,0,-0.1921,-0.193,-0.194,-0.1967,-0.1976,-0.2025,-0.2005,-0.2007,-0.2021,-0.2018,-0.2019,-0.2016,-0.2007,-0.2036,-0.2037,-0.2049,-0.2004,-0.2078,-0.2081,-0.2084,-0.2128,-0.2135,-0.2142,0,0,0,0,0,-0.1918,-0.1941,-0.194,-0.1947,-0.1989,-0.2026,-0.2032,-0.2035,-0.2022,-0.2037,-0.2044,-0.2016,-0.2056,-0.2038,-0.204,-0.2052,-0.2076,-0.208,-0.2084,-0.2125,-0.2134,-0.2142,0,0,0,0,0,0,-0.1905,-0.1943,-0.1942,-0.1973,-0.1997,-0.2024,-0.2036,-0.204,-0.206,-0.2054,-0.2045,-0.2045,-0.2073,-0.2065,-0.2045,-0.2087,-0.2058,-0.2063,-0.2089,-0.2098,-0.2104,-0.2116,-0.2004,0,0,0,0,0,-0.1908,-0.1935,-0.1966,-0.1988,-0.2001,-0.2019,-0.2033,-0.204,-0.206,-0.2066,-0.2068,-0.2074,-0.2094,-0.2096,-0.211,-0.2137,-0.2133,-0.2145,-0.2152,-0.2158,-0.217,-0.2178,-0.2186,-0.2098,-0.2098,-0.2098,0,0,-0.1906,-0.1931,-0.1943,-0.1987,-0.2002,-0.2035,-0.2024,-0.2052,-0.2082,-0.2062,-0.2098,-0.2101,-0.2109,-0.2141,-0.2151,-0.2131,-0.2184,-0.2162,-0.2167,-0.2177,-0.2183,-0.2191,-0.2199,-0.2101,-0.21,-0.21,0,0,-0.1916,-0.194,-0.1963,-0.1989,-0.2021,-0.2046,-0.2055,-0.2087,-0.2103,-0.2143,-0.2139,-0.2164,-0.2178,-0.2198,-0.2207,-0.2266,-0.2225,-0.2251,-0.2288,-0.2296,-0.2303,-0.2309,-0.2323,-0.233,-0.2248,-0.2248,-0.2248,0,-0.1911,-0.1944,-0.1975,-0.2004,-0.2025,-0.2052,-0.2081,-0.2117,-0.2154,-0.2173,-0.2157,-0.2207,-0.2215,-0.2264,-0.2283,-0.2282,-0.227,-0.2252,-0.2303,-0.2309,-0.2315,-0.2328,-0.2335,-0.2251,-0.225,-0.225,-0.225,0,-0.1941,-0.1963,-0.198,-0.203,-0.2063,-0.2093,-0.2144,-0.2181,-0.2199,-0.2223,-0.2271,-0.2292,-0.2315,-0.2322,-0.2321,-0.2364,-0.2339,-0.2314,-0.2278,-0.2326,-0.2337,-0.2344,-0.2254,-0.2253,-0.2253,-0.2252,0,0,-0.1942,-0.1991,-0.1997,-0.2009,-0.2077,-0.2105,-0.2175,-0.2238,-0.2272,-0.2309,-0.2347,-0.24,-0.2394,-0.2407,-0.2406,-0.2419,-0.2457,-0.2378,-0.2377,-0.2385,-0.2467,-0.2302,-0.2293,-0.2419,-0.2421,-0.2422,-0.2462,0,-0.1952,-0.1996,-0.2029,-0.2071,-0.2095,-0.2149,-0.2208,-0.2269,-0.2313,-0.236,-0.2399,-0.2427,-0.2431,-0.2429,-0.2454,-0.245,-0.2474,-0.2449,-0.2426,-0.2427,-0.2266,-0.2295,-0.2145,-0.2154,-0.2468,-0.2469,-0.247,0,-0.1978,-0.1997,-0.2036,-0.2081,-0.2098,-0.2134,-0.2222,-0.2274,-0.2361,-0.2387,-0.2434,-0.2451,-0.2506,-0.2482,-0.2528,-0.2499,-0.2498,-0.2495,-0.2496,-0.2329,-0.2272,-0.2156,-0.2153,-0.2093,-0.2479,-0.2478,-0.2478,0,-0.1964,-0.2006,-0.2032,-0.2049,-0.2113,-0.2141,-0.2184,-0.2274,-0.232,-0.2392,-0.2415,-0.2479,-0.2497,-0.2517,-0.254,-0.2518,-0.2572,-0.2539,-0.2405,-0.2394,-0.2258,-0.2231,-0.2184,-0.2577,-0.2577,-0.2577,-0.2577,0,-0.1973,-0.1988,-0.2018,-0.2028,-0.2057,-0.2112,-0.2163,-0.2218,-0.2297,-0.234,-0.2409,-0.2445,-0.2498,-0.2539,-0.2552,-0.2496,-0.2586,-0.2418,-0.2388,-0.2269,-0.2243,-0.2174,-0.222,-0.2578,-0.2578,-0.2578,-0.2578,0,-0.1958,-0.1984,-0.1999,-0.2038,-0.2048,-0.2067,-0.2132,-0.2174,-0.2246,-0.2304,-0.2321,-0.2419,-0.2454,-0.2516,-0.2551,-0.248,-0.2401,-0.2432,-0.2289,-0.2238,-0.1965,-0.202,-0.2015,-0.1959,-0.225,-0.2246,-0.2242,0,-0.1957,-0.196,-0.1983,-0.1988,-0.1999,-0.2031,-0.2062,-0.2137,-0.218,-0.2281,-0.2303,-0.2366,-0.2401,-0.2398,-0.2307,-0.2278,-0.232,-0.208,-0.1999,-0.1925,-0.1968,-0.2035,-0.1996,-0.1866,-0.186,-0.1855,-0.1851,0,-0.193,-0.1937,-0.1948,-0.1954,-0.1968,-0.1989,-0.2029,-0.2058,-0.2149,-0.2191,-0.2243,-0.2272,-0.2245,-0.2113,-0.2041,-0.2005,-0.1978,-0.1965,-0.194,-0.1698,-0.1725,-0.1662,-0.1889,-0.1806,-0.1811,-0.1814,-0.1816,-0.1818,-0.19,-0.1898,-0.1909,-0.1914,-0.193,-0.1941,-0.1936,-0.1989,-0.2029,-0.2068,-0.2144,-0.2122,-0.196,-0.1809,-0.1757,-0.1489,-0.1658,-0.1393,-0.1483,-0.1571,-0.1451,-0.1559,-0.1393,-0.1395,-0.1397,-0.1398,-0.14,0,-0.1858,-0.1862,-0.1867,-0.1866,-0.1863,-0.1884,-0.1909,-0.1892,-0.1899,-0.1922,-0.1942,-0.1774,-0.1583,-0.144,-0.1122,-0.1018,-0.1041,-0.1023,-0.1114,-0.1107,-0.1221,-0.1127,-0.0831,-0.0831,-0.0831,-0.0831,-0.0831,-0.0831,-0.1833,-0.1823,-0.1825,-0.1795,-0.1792,-0.1741,-0.1733,-0.1712,-0.17,-0.1605,-0.1505,-0.1497,-0.127,-0.1134,-0.0874,-0.0817,-0.0855,-0.0836,-0.0923,-0.1015,-0.1058,-0.1099,-0.1015,-0.07,-0.0701,-0.0717,-0.0718,-0.0718]},{"header":{"parameterUnit":"m.s-1","parameterCategory":2,"la1":30.2991,"la2":30.254,"lo1":-89.0895,"lo2":-89.0444,"dy":0.0017,"dx":0.0017,"nx":28,"ny":28,"refTime":"2024-03-06T03:00:00:Z","depth":"0","parameterNumber":3,"parameterNumberName":"V-component_of_CURRENTS"},"data":[0,0,0,0,0,0,0,0,0,0,0,0,0,0,0,0,0,0,0,0,0,0,0,0,0,0,0,0,0,0,0,0,0,0,0,0,0,0,0,0,0,0,0,0,0,0,0,0,0,0,0,0,0,0,0,0,0,0,-0.1313,-0.1312,0,-0.1212,-0.121,-0.1209,-0.1126,-0.1125,-0.1125,-0.1124,-0.0945,-0.0941,-0.0937,0,0,0,0,0,0,0,0,0,0,0,0,0,-0.1334,-0.1334,-0.1313,-0.1312,-0.1311,-0.1212,-0.121,-0.1209,-0.1126,-0.1125,-0.1125,-0.1124,-0.0946,-0.0941,-0.0936,0,0,0,0,0,0,0,0,0,0,0,0,0,-0.1285,-0.1334,-0.1314,-0.1261,-0.1255,-0.1212,-0.121,-0.1208,-0.1126,-0.1125,-0.1125,-0.1124,-0.0948,-0.0942,-0.0935,-0.0912,0,0,-0.0916,-0.0913,0,0,0,0,0,0,0,0,-0.1288,-0.1284,-0.127,-0.1265,-0.1258,-0.1184,-0.1152,-0.1106,-0.1126,-0.1172,-0.1124,-0.1124,-0.1021,-0.1008,-0.0987,-0.0904,-0.0896,-0.0915,-0.0911,-0.0909,-0.0907,0,0,0,0,0,0,0,-0.1291,-0.1287,-0.1269,-0.1269,-0.1262,-0.1208,-0.1201,-0.1142,-0.1098,-0.1168,-0.1162,-0.1157,-0.1016,-0.0993,-0.0982,-0.0893,-0.0915,-0.091,-0.0906,-0.0903,-0.0764,-0.0764,0,0,0,0,0,0,-0.1318,-0.1291,-0.1273,-0.1267,-0.1275,-0.1209,-0.12,-0.1206,-0.11,-0.1084,-0.1158,-0.1153,-0.1005,-0.0989,-0.0975,-0.0943,-0.0909,-0.0903,-0.0899,-0.0764,-0.0764,-0.0764,0,0,0,0,0,0,-0.1319,-0.1318,-0.1277,-0.1278,-0.127,-0.1211,-0.1216,-0.1204,-0.1181,-0.1094,-0.1076,-0.1148,-0.1003,-0.0984,-0.0918,-0.0935,-0.09,-0.0894,-0.0764,-0.0764,-0.0764,-0.0878,0,0,0,0,0,0,-0.132,-0.1319,-0.1332,-0.1281,-0.1271,-0.1264,-0.1217,-0.1203,-0.1181,-0.1174,-0.1079,-0.1062,-0.1001,-0.0928,-0.0911,-0.0926,-0.0889,-0.0764,-0.0764,-0.0764,-0.0874,-0.0882,-0.0889,0,0,0,0,0,-0.1321,-0.1347,-0.1333,-0.1331,-0.1292,-0.1265,-0.1255,-0.1206,-0.1182,-0.118,-0.1105,-0.1065,-0.0918,-0.0922,-0.0903,-0.0917,-0.0764,-0.0764,-0.0764,-0.087,-0.088,-0.0888,0,0,0,0,0,0,-0.1369,-0.134,-0.1324,-0.1342,-0.1312,-0.1253,-0.1246,-0.1215,-0.1156,-0.1144,-0.1058,-0.1035,-0.0987,-0.0932,-0.0939,-0.0876,-0.0838,-0.0834,-0.0925,-0.0933,-0.0941,-0.0972,-0.0884,0,0,0,0,0,-0.1387,-0.1399,-0.1357,-0.1375,-0.1358,-0.1304,-0.1287,-0.1257,-0.12,-0.1174,-0.1111,-0.1038,-0.0975,-0.0939,-0.0878,-0.0839,-0.0806,-0.0836,-0.0844,-0.0851,-0.0862,-0.0846,-0.0854,-0.0766,-0.0766,-0.0766,0,0,-0.1414,-0.14,-0.1407,-0.1386,-0.1353,-0.1345,-0.129,-0.1273,-0.1271,-0.1163,-0.1134,-0.1061,-0.0969,-0.0927,-0.0901,-0.0882,-0.0854,-0.0851,-0.0858,-0.0866,-0.0847,-0.0856,-0.0864,-0.0766,-0.0766,-0.0766,0,0,-0.1463,-0.1455,-0.1468,-0.1445,-0.1409,-0.1383,-0.1384,-0.133,-0.1305,-0.1265,-0.119,-0.1131,-0.1036,-0.0981,-0.0937,-0.0949,-0.0896,-0.0928,-0.0988,-0.0973,-0.0981,-0.0988,-0.0946,-0.0948,-0.0931,-0.0931,-0.0931,0,-0.1491,-0.1504,-0.1469,-0.1466,-0.1458,-0.1407,-0.1414,-0.1388,-0.1325,-0.1301,-0.1271,-0.1137,-0.1067,-0.1011,-0.1012,-0.097,-0.0942,-0.0966,-0.0987,-0.0992,-0.0997,-0.0953,-0.0954,-0.0936,-0.0936,-0.0935,-0.0935,0,-0.1536,-0.1541,-0.1546,-0.1533,-0.1525,-0.1523,-0.1486,-0.1479,-0.1444,-0.1398,-0.1338,-0.1243,-0.1162,-0.1135,-0.1072,-0.1065,-0.1027,-0.1003,-0.0974,-0.1014,-0.0963,-0.0963,-0.0944,-0.0942,-0.0941,-0.0939,0,0,-0.1606,-0.1582,-0.1583,-0.1582,-0.1557,-0.1557,-0.1566,-0.1543,-0.1539,-0.1476,-0.1458,-0.1353,-0.1293,-0.1241,-0.1165,-0.1148,-0.1151,-0.1097,-0.1094,-0.1074,-0.1101,-0.0945,-0.0928,-0.1137,-0.1138,-0.1138,-0.1049,0,-0.1645,-0.1657,-0.1643,-0.1669,-0.1665,-0.1639,-0.1658,-0.1633,-0.1589,-0.1562,-0.1469,-0.1411,-0.1337,-0.1297,-0.1272,-0.1185,-0.1155,-0.1176,-0.1049,-0.1045,-0.0918,-0.0925,-0.0821,-0.0722,-0.1048,-0.1047,-0.1047,0,-0.1689,-0.1686,-0.171,-0.1723,-0.1723,-0.1745,-0.1756,-0.176,-0.1707,-0.1666,-0.1595,-0.1512,-0.1456,-0.1398,-0.129,-0.1308,-0.1215,-0.1149,-0.1143,-0.096,-0.0888,-0.0734,-0.0707,-0.0511,-0.1045,-0.1045,-0.1045,0,-0.1738,-0.1743,-0.1768,-0.1765,-0.177,-0.1794,-0.1811,-0.1782,-0.1783,-0.1724,-0.1706,-0.1613,-0.157,-0.1473,-0.131,-0.1312,-0.119,-0.1173,-0.0939,-0.0926,-0.0792,-0.0765,-0.0575,-0.11,-0.11,-0.1101,-0.1101,0,-0.1785,-0.1803,-0.1792,-0.18,-0.185,-0.184,-0.1886,-0.1877,-0.1859,-0.1856,-0.1759,-0.1744,-0.1593,-0.1487,-0.135,-0.1127,-0.1215,-0.0945,-0.0895,-0.0822,-0.0801,-0.0584,-0.0539,-0.1097,-0.1098,-0.1099,-0.1099,0,-0.1836,-0.1824,-0.1844,-0.1854,-0.1869,-0.1903,-0.1948,-0.1971,-0.1947,-0.1946,-0.1934,-0.1848,-0.1712,-0.1518,-0.1343,-0.1157,-0.0833,-0.0866,-0.0768,-0.0706,-0.0288,-0.0255,-0.0053,0.0062,-0.0606,-0.0602,-0.0598,0,-0.1864,-0.1874,-0.1885,-0.1909,-0.1919,-0.1967,-0.2012,-0.2012,-0.2023,-0.201,-0.2013,-0.1891,-0.18,-0.1459,-0.1108,-0.0793,-0.068,-0.0478,-0.0451,-0.0235,-0.0164,-0.0165,-0.0086,-0.0321,-0.0316,-0.0311,-0.0307,0,-0.1908,-0.1906,-0.1919,-0.1965,-0.2008,-0.2064,-0.2112,-0.2132,-0.2131,-0.2137,-0.2132,-0.2072,-0.1698,-0.1309,-0.0826,-0.0614,-0.0312,-0.0369,-0.0191,0.005,0.01,0.0226,-0.04,-0.0266,-0.027,-0.0273,-0.0275,-0.0277,-0.1936,-0.1951,-0.1967,-0.202,-0.2077,-0.2144,-0.2194,-0.2229,-0.2267,-0.2246,-0.2198,-0.2025,-0.1424,-0.0748,-0.0506,0.0148,0.0012,0.0331,0.0344,0.0317,0.0464,-0.0039,0.0185,0.0184,0.0182,0.0181,0.018,0,-0.1943,-0.197,-0.2028,-0.2084,-0.2165,-0.2184,-0.2252,-0.2291,-0.2336,-0.2234,-0.2195,-0.1505,-0.0913,-0.0315,0.0537,0.0838,0.0864,0.0969,0.0967,0.1007,0.0542,0.0597,0.0976,0.0976,0.0976,0.0976,0.0975,0.0975,-0.1941,-0.1977,-0.2007,-0.2136,-0.22,-0.2294,-0.2328,-0.2371,-0.23,-0.2036,-0.1646,-0.1329,-0.0435,0.0617,0.1322,0.1402,0.156,0.1553,0.1609,0.1278,0.1218,0.1161,0.1228,0.1733,0.1734,0.2086,0.209,0.2093]}],[{"header":{"parameterUnit":"m.s-1","parameterCategory":2,"la1":30.2991,"la2":30.254,"lo1":-89.0895,"lo2":-89.0444,"dy":0.0017,"dx":0.0017,"nx":28,"ny":28,"refTime":"2024-03-06T03:00:00:Z","depth":"2","parameterNumber":2,"parameterNumberName":"U-component_of_CURRENTS"},"data":[0,0,0,0,0,0,0,0,0,0,0,0,0,0,0,0,0,0,0,0,0,0,0,0,0,0,0,0,0,0,0,0,0,0,0,0,0,0,0,0,0,0,0,0,0,0,0,0,0,0,0,0,0,0,0,0,0,0,-0.1684,-0.1684,0,-0.1734,-0.1734,-0.1734,-0.1707,-0.1706,-0.1705,-0.1704,-0.1739,-0.1741,-0.1742,0,0,0,0,0,0,0,0,0,0,0,0,0,-0.1645,-0.1645,-0.1683,-0.1685,-0.1686,-0.1734,-0.1734,-0.1734,-0.1707,-0.1706,-0.1705,-0.1704,-0.1738,-0.174,-0.1742,0,0,0,0,0,0,0,0,0,0,0,0,0,-0.167,-0.1645,-0.1683,-0.1682,-0.1682,-0.1734,-0.1734,-0.1734,-0.1707,-0.1706,-0.1705,-0.1703,-0.1738,-0.174,-0.1743,-0.1786,0,0,-0.1751,-0.1752,0,0,0,0,0,0,0,0,-0.1669,-0.1671,-0.1681,-0.1682,-0.1683,-0.1717,-0.1734,-0.1753,-0.1708,-0.1692,-0.1704,-0.1703,-0.1735,-0.1737,-0.1743,-0.1787,-0.1789,-0.1751,-0.1753,-0.1754,-0.1754,0,0,0,0,0,0,0,-0.1667,-0.1669,-0.1698,-0.1682,-0.1684,-0.1707,-0.1708,-0.1737,-0.1716,-0.1694,-0.1693,-0.1708,-0.1734,-0.174,-0.1743,-0.1789,-0.1751,-0.1753,-0.1755,-0.1756,-0.1906,-0.1909,0,0,0,0,0,0,-0.1668,-0.1667,-0.1697,-0.17,-0.1678,-0.1709,-0.1709,-0.1703,-0.1716,-0.1718,-0.1709,-0.1706,-0.1736,-0.174,-0.1744,-0.1842,-0.1754,-0.1756,-0.1758,-0.1904,-0.1907,-0.1909,0,0,0,0,0,0,-0.1667,-0.167,-0.1695,-0.169,-0.1696,-0.1711,-0.1705,-0.1705,-0.1767,-0.1729,-0.1729,-0.1776,-0.1735,-0.1741,-0.1839,-0.1841,-0.1757,-0.176,-0.1901,-0.1905,-0.1908,-0.2007,0,0,0,0,0,0,-0.1665,-0.1668,-0.1699,-0.169,-0.1696,-0.1754,-0.1706,-0.1707,-0.1776,-0.1775,-0.1786,-0.1784,-0.1735,-0.1836,-0.1842,-0.1843,-0.1762,-0.1898,-0.1903,-0.1907,-0.2001,-0.2014,-0.2025,0,0,0,0,0,-0.1663,-0.1711,-0.17,-0.1706,-0.1725,-0.1757,-0.1764,-0.1766,-0.1782,-0.1817,-0.185,-0.1786,-0.1865,-0.1843,-0.1848,-0.185,-0.1896,-0.1901,-0.1907,-0.1995,-0.2011,-0.2024,0,0,0,0,0,0,-0.1715,-0.1713,-0.17,-0.1745,-0.1762,-0.1755,-0.1806,-0.1819,-0.1874,-0.189,-0.186,-0.1863,-0.1908,-0.1907,-0.1883,-0.1906,-0.1853,-0.1861,-0.1919,-0.1933,-0.1945,-0.1937,-0.1764,0,0,0,0,0,-0.174,-0.1766,-0.1765,-0.1803,-0.1821,-0.1831,-0.1863,-0.1863,-0.1896,-0.192,-0.1929,-0.1939,-0.1928,-0.1963,-0.194,-0.2022,-0.1999,-0.2014,-0.2026,-0.2036,-0.2036,-0.204,-0.2052,-0.1927,-0.1927,-0.1927,0,0,-0.177,-0.1774,-0.1791,-0.1817,-0.1831,-0.1868,-0.1846,-0.1907,-0.1931,-0.1919,-0.199,-0.1979,-0.1954,-0.1986,-0.2009,-0.2002,-0.2066,-0.2043,-0.2052,-0.2045,-0.2047,-0.2059,-0.2069,-0.1931,-0.193,-0.193,0,0,-0.1825,-0.1849,-0.1882,-0.191,-0.1948,-0.1949,-0.1987,-0.2015,-0.2023,-0.2097,-0.2058,-0.2101,-0.2118,-0.2096,-0.2084,-0.2179,-0.2103,-0.215,-0.2239,-0.2245,-0.2254,-0.2262,-0.2267,-0.2275,-0.2187,-0.2187,-0.2187,0,-0.1866,-0.1888,-0.1904,-0.1946,-0.1978,-0.1997,-0.2042,-0.2059,-0.2116,-0.2115,-0.2128,-0.2137,-0.2154,-0.2158,-0.2194,-0.22,-0.2189,-0.2182,-0.2258,-0.2266,-0.2272,-0.2275,-0.2282,-0.2193,-0.2192,-0.2192,-0.2191,0,-0.1917,-0.1964,-0.1999,-0.2035,-0.2081,-0.2132,-0.2146,-0.2186,-0.221,-0.2197,-0.2212,-0.2243,-0.224,-0.225,-0.2269,-0.2306,-0.2277,-0.2245,-0.2217,-0.229,-0.2289,-0.2295,-0.22,-0.2199,-0.2197,-0.2196,0,0,-0.1911,-0.2011,-0.202,-0.2052,-0.2133,-0.2159,-0.2214,-0.2226,-0.2244,-0.2273,-0.2279,-0.2314,-0.2313,-0.2307,-0.2316,-0.2373,-0.2455,-0.2363,-0.2361,-0.236,-0.2466,-0.2249,-0.2233,-0.2431,-0.2432,-0.2433,-0.2453,0,-0.1936,-0.2011,-0.2063,-0.2147,-0.2188,-0.2234,-0.2277,-0.2297,-0.2306,-0.232,-0.2309,-0.2322,-0.233,-0.2362,-0.2406,-0.2436,-0.2471,-0.2452,-0.2402,-0.24,-0.219,-0.2233,-0.2058,-0.2041,-0.2458,-0.2459,-0.2459,0,-0.194,-0.1993,-0.2066,-0.2173,-0.2198,-0.2253,-0.2301,-0.2346,-0.2352,-0.2361,-0.2358,-0.2342,-0.2415,-0.2416,-0.2477,-0.2462,-0.2476,-0.2497,-0.2497,-0.2256,-0.2191,-0.2032,-0.2035,-0.2468,-0.2467,-0.2466,-0.2466,0,-0.1862,-0.199,-0.2038,-0.2079,-0.22,-0.2235,-0.23,-0.2339,-0.236,-0.239,-0.241,-0.242,-0.2464,-0.2475,-0.2514,-0.2514,-0.2558,-0.2548,-0.2343,-0.2329,-0.2147,-0.2111,-0.2562,-0.2562,-0.2562,-0.2562,-0.2562,0,-0.1836,-0.1887,-0.2008,-0.2032,-0.2094,-0.2207,-0.2256,-0.231,-0.2377,-0.2389,-0.243,-0.2433,-0.249,-0.2497,-0.2514,-0.2429,-0.2541,-0.2349,-0.2311,-0.2176,-0.2144,-0.2481,-0.2471,-0.2563,-0.2563,-0.2563,-0.2562,0,-0.1742,-0.1823,-0.1879,-0.2006,-0.205,-0.2089,-0.2233,-0.2272,-0.2364,-0.2387,-0.2408,-0.2469,-0.2486,-0.2488,-0.2527,-0.2416,-0.2376,-0.2308,-0.2137,-0.2074,-0.2152,-0.2148,-0.2092,-0.2084,-0.2077,-0.2072,-0.2067,0,-0.1704,-0.1715,-0.182,-0.1855,-0.1919,-0.2009,-0.2079,-0.2219,-0.2266,-0.2377,-0.2378,-0.2421,-0.2379,-0.2321,-0.2175,-0.2082,-0.2232,-0.1838,-0.1782,-0.213,-0.2101,-0.2107,-0.2112,-0.162,-0.1612,-0.1606,-0.1601,0,-0.1623,-0.1645,-0.1688,-0.1749,-0.1822,-0.1895,-0.2011,-0.2035,-0.2188,-0.2191,-0.2211,-0.2198,-0.2141,-0.1925,-0.1781,-0.1711,-0.1833,-0.1693,-0.2125,-0.1724,-0.1674,-0.1649,-0.1672,-0.1543,-0.1549,-0.1553,-0.1556,-0.1559,-0.1557,-0.1551,-0.1597,-0.165,-0.1724,-0.1772,-0.1797,-0.189,-0.1893,-0.1914,-0.1981,-0.1885,-0.1843,-0.1487,-0.1383,-0.1266,-0.1385,-0.1319,-0.1345,-0.1377,-0.1276,-0.1212,-0.0979,-0.0981,-0.0983,-0.0985,-0.0987,0,-0.149,-0.1496,-0.152,-0.157,-0.1602,-0.1676,-0.175,-0.1725,-0.1673,-0.1673,-0.1647,-0.1382,-0.1191,-0.1187,-0.087,-0.0753,-0.0834,-0.0757,-0.0885,-0.0937,-0.0984,-0.0872,-0.0464,-0.0463,-0.0463,-0.0462,0,0,-0.1459,-0.144,-0.1438,-0.1438,-0.1483,-0.1495,-0.1507,-0.1439,-0.1407,-0.1258,-0.116,-0.1205,-0.1133,-0.0815,-0.0713,-0.0553,-0.0778,-0.0528,-0.0937,-0.1144,-0.1193,-0.1273,-0.115,0,0,0,0,0]},{"header":{"parameterUnit":"m.s-1","parameterCategory":2,"la1":30.2991,"la2":30.254,"lo1":-89.0895,"lo2":-89.0444,"dy":0.0017,"dx":0.0017,"nx":28,"ny":28,"refTime":"2024-03-06T03:00:00:Z","depth":"2","parameterNumber":3,"parameterNumberName":"V-component_of_CURRENTS"},"data":[0,0,0,0,0,0,0,0,0,0,0,0,0,0,0,0,0,0,0,0,0,0,0,0,0,0,0,0,0,0,0,0,0,0,0,0,0,0,0,0,0,0,0,0,0,0,0,0,0,0,0,0,0,0,0,0,0,0,0.0441,0.0441,0,0.045,0.045,0.045,0.0461,0.0461,0.0461,0.0461,0.0515,0.0517,0.0518,0,0,0,0,0,0,0,0,0,0,0,0,0,0.0421,0.0421,0.0441,0.0441,0.0441,0.045,0.045,0.045,0.0461,0.0461,0.0461,0.0461,0.0515,0.0516,0.0518,0,0,0,0,0,0,0,0,0,0,0,0,0,0.043,0.0422,0.0441,0.0447,0.0448,0.045,0.045,0.045,0.0461,0.0461,0.0461,0.0461,0.0514,0.0516,0.0518,0.0527,0,0,0.0524,0.0525,0,0,0,0,0,0,0,0,0.043,0.0431,0.0446,0.0446,0.0447,0.0454,0.0463,0.0478,0.0461,0.0456,0.0461,0.0461,0.0499,0.0502,0.0503,0.0529,0.0532,0.0525,0.0526,0.0527,0.0527,0,0,0,0,0,0,0,0.0429,0.0431,0.0445,0.0446,0.0447,0.0445,0.0447,0.0465,0.0477,0.0457,0.0457,0.0457,0.0499,0.0501,0.0505,0.0533,0.0525,0.0526,0.0528,0.0528,0.0604,0.0605,0,0,0,0,0,0,0.0428,0.043,0.0444,0.0445,0.0438,0.0445,0.0447,0.0452,0.0476,0.048,0.0457,0.0458,0.0498,0.0502,0.0507,0.0527,0.0527,0.0528,0.053,0.0604,0.0605,0.0605,0,0,0,0,0,0,0.0427,0.0429,0.0444,0.0437,0.0439,0.0446,0.0451,0.0452,0.046,0.0476,0.0481,0.0465,0.0498,0.0504,0.0538,0.0529,0.0529,0.0531,0.0603,0.0604,0.0605,0.0561,0,0,0,0,0,0,0.0427,0.0429,0.0439,0.0437,0.0439,0.0446,0.045,0.0452,0.046,0.0461,0.0484,0.0489,0.0499,0.0535,0.054,0.0531,0.0533,0.0602,0.0603,0.0605,0.0562,0.0561,0.056,0,0,0,0,0,0.0426,0.0442,0.044,0.0442,0.0451,0.0446,0.0447,0.0453,0.046,0.0462,0.0488,0.0489,0.0548,0.0538,0.0543,0.0535,0.0601,0.0603,0.0605,0.0562,0.0561,0.056,0,0,0,0,0,0,0.0441,0.0444,0.0442,0.0458,0.0451,0.0448,0.0451,0.0457,0.0477,0.048,0.0502,0.0509,0.0526,0.055,0.0538,0.0565,0.0574,0.0577,0.0539,0.0539,0.0538,0.0528,0.0534,0,0,0,0,0,0.0447,0.0456,0.0452,0.0461,0.0456,0.0453,0.0456,0.0455,0.0468,0.0476,0.0492,0.0517,0.0537,0.0555,0.0568,0.0594,0.0598,0.0594,0.0593,0.0592,0.0591,0.0613,0.0613,0.0612,0.0612,0.0612,0,0,0.0451,0.0456,0.0459,0.0464,0.0456,0.0442,0.0455,0.0451,0.0444,0.048,0.0484,0.0507,0.0542,0.0557,0.0569,0.0579,0.0589,0.0595,0.0593,0.0593,0.0615,0.0615,0.0615,0.0613,0.0613,0.0612,0,0,0.0443,0.0466,0.0456,0.045,0.0439,0.0442,0.0442,0.0436,0.0439,0.0449,0.0471,0.0506,0.0525,0.0557,0.0574,0.0588,0.0575,0.0582,0.0579,0.06,0.0599,0.0599,0.057,0.0568,0.0593,0.0593,0.0593,0,0.0447,0.043,0.0452,0.0433,0.0421,0.044,0.0412,0.0424,0.0432,0.0431,0.0444,0.0489,0.0527,0.0558,0.0567,0.0584,0.0571,0.0573,0.0596,0.0596,0.0597,0.0567,0.0565,0.0591,0.0591,0.0591,0.0592,0,0.0419,0.0402,0.0394,0.0377,0.0379,0.0358,0.0368,0.0374,0.0384,0.0387,0.0407,0.0465,0.0493,0.0515,0.0547,0.0572,0.0549,0.0579,0.059,0.0594,0.0563,0.0561,0.0588,0.0589,0.059,0.059,0,0,0.041,0.0378,0.0367,0.0336,0.034,0.033,0.0335,0.0329,0.0324,0.0351,0.0346,0.0413,0.0439,0.0466,0.0514,0.0556,0.0555,0.0569,0.0571,0.0523,0.0549,0.0643,0.065,0.0577,0.0578,0.0578,0.0512,0,0.0362,0.0308,0.0314,0.0259,0.0224,0.0249,0.025,0.026,0.0279,0.0286,0.035,0.0363,0.0421,0.0437,0.0487,0.0545,0.0554,0.0567,0.0568,0.0567,0.0638,0.0655,0.0587,0.0534,0.0511,0.051,0.051,0,0.0309,0.028,0.0213,0.0177,0.0166,0.0145,0.0145,0.0147,0.0182,0.0196,0.0235,0.0279,0.0349,0.0397,0.0476,0.0473,0.0498,0.0541,0.054,0.0647,0.0662,0.0536,0.0533,0.0508,0.0508,0.0508,0.0509,0,0.026,0.0202,0.0144,0.0129,0.0107,0.0079,0.0074,0.0101,0.0098,0.0131,0.0134,0.0215,0.0241,0.0318,0.0425,0.0434,0.0499,0.0521,0.0611,0.0614,0.0572,0.0574,0.0545,0.0545,0.0545,0.0546,0.0546,0,0.0199,0.0144,0.0102,0.0065,-0.0001,0.001,-0.004,-0.0023,-0.0002,-0.0019,0.0071,0.0081,0.0223,0.0289,0.0383,0.0504,0.0457,0.0609,0.0621,0.0554,0.0556,0.0558,0.0561,0.0543,0.0544,0.0544,0.0545,0,0.0138,0.0112,0.0038,-0.0011,-0.0038,-0.0086,-0.013,-0.0152,-0.0121,-0.0138,-0.0133,-0.0038,0.0049,0.019,0.0309,0.0442,0.0557,0.0592,0.0492,0.0499,0.0649,0.065,0.0681,0.0684,0.0687,0.0689,0.0691,0,0.0097,0.005,-0.0027,-0.0082,-0.0124,-0.0194,-0.0238,-0.0225,-0.024,-0.0214,-0.0224,-0.0149,-0.0107,0.0124,0.0362,0.0536,0.0546,0.0612,0.0666,0.0663,0.0671,0.0668,0.0665,0.0545,0.0546,0.0546,0.0546,0,0.0019,-0.0007,-0.0058,-0.0167,-0.0246,-0.0317,-0.038,-0.0399,-0.0381,-0.0369,-0.0357,-0.0328,-0.0131,0.0083,0.0366,0.047,0.0606,0.0634,0.0635,0.0569,0.0545,0.055,0.0549,0.055,0.055,0.055,0.0549,0.0549,-0.0044,-0.0085,-0.0156,-0.0266,-0.0351,-0.0438,-0.0503,-0.0521,-0.0536,-0.052,-0.0482,-0.0388,-0.0172,0.0243,0.0401,0.0612,0.0637,0.0707,0.07,0.0694,0.0739,0.0727,0.0769,0.0769,0.077,0.0771,0.0771,0,-0.0131,-0.018,-0.0259,-0.0377,-0.0482,-0.0513,-0.0599,-0.0617,-0.0643,-0.0571,-0.0561,-0.03,-0.0069,0.0169,0.0501,0.0696,0.0632,0.0712,0.0591,0.0588,0.0584,0.0619,0.0618,0.0618,0.0618,0.0618,0,0,-0.0183,-0.0265,-0.0292,-0.048,-0.0572,-0.0712,-0.0772,-0.0748,-0.0694,-0.0609,-0.0482,-0.0355,-0.0027,0.0194,0.037,0.0508,0.049,0.05,0.0605,0.0433,0.0427,0.0569,0.0619,0,0,0,0,0]}],[{"header":{"parameterUnit":"m.s-1","parameterCategory":2,"la1":30.2991,"la2":30.254,"lo1":-89.0895,"lo2":-89.0444,"dy":0.0017,"dx":0.0017,"nx":28,"ny":28,"refTime":"2024-03-06T03:00:00:Z","depth":"4","parameterNumber":2,"parameterNumberName":"U-component_of_CURRENTS"},"data":[0,0,0,0,0,0,0,0,0,0,0,0,0,0,0,0,0,0,0,0,0,0,0,0,0,0,0,0,0,0,0,0,0,0,0,0,0,0,0,0,0,0,0,0,0,0,0,0,0,0,0,0,0,0,0,0,0,0,-0.0823,-0.0824,0,-0.0861,-0.0862,-0.0862,-0.0894,-0.0895,-0.0895,-0.0895,-0.0971,-0.0973,-0.0975,0,0,0,0,0,0,0,0,0,0,0,0,0,-0.0813,-0.0813,-0.0823,-0.0824,-0.0824,-0.0861,-0.0862,-0.0862,-0.0894,-0.0895,-0.0895,-0.0895,-0.097,-0.0973,-0.0975,0,0,0,0,0,0,0,0,0,0,0,0,0,-0.0832,-0.0813,-0.0823,-0.0843,-0.0846,-0.0861,-0.0862,-0.0863,-0.0894,-0.0895,-0.0895,-0.0895,-0.097,-0.0972,-0.0975,-0.0984,0,0,-0.0983,-0.0984,0,0,0,0,0,0,0,0,-0.0831,-0.0832,-0.084,-0.0842,-0.0844,-0.0872,-0.0886,-0.0905,-0.0894,-0.0877,-0.0895,-0.0895,-0.0941,-0.0946,-0.0953,-0.0988,-0.0991,-0.0983,-0.0985,-0.0986,-0.0987,0,0,0,0,0,0,0,-0.0829,-0.0831,-0.0839,-0.084,-0.0843,-0.0863,-0.0865,-0.089,-0.0908,-0.0878,-0.0881,-0.0883,-0.0942,-0.095,-0.0955,-0.0992,-0.0983,-0.0986,-0.0987,-0.0988,-0.1095,-0.1096,0,0,0,0,0,0,-0.082,-0.0829,-0.0838,-0.084,-0.0837,-0.0862,-0.0866,-0.0864,-0.0907,-0.0913,-0.0883,-0.0884,-0.0946,-0.0952,-0.0958,-0.1022,-0.0986,-0.0989,-0.099,-0.1094,-0.1095,-0.1096,0,0,0,0,0,0,-0.082,-0.082,-0.0837,-0.0835,-0.0839,-0.0862,-0.086,-0.0865,-0.0884,-0.0909,-0.0917,-0.0898,-0.0946,-0.0954,-0.0994,-0.1023,-0.099,-0.0992,-0.1092,-0.1094,-0.1096,-0.1118,0,0,0,0,0,0,-0.0819,-0.082,-0.0822,-0.0834,-0.0838,-0.0857,-0.086,-0.0865,-0.0883,-0.0886,-0.0925,-0.0932,-0.0947,-0.099,-0.0997,-0.1027,-0.0995,-0.1091,-0.1093,-0.1095,-0.1116,-0.112,-0.1124,0,0,0,0,0,-0.0818,-0.0818,-0.0822,-0.0823,-0.0838,-0.0857,-0.0862,-0.088,-0.0884,-0.0898,-0.0924,-0.0931,-0.1009,-0.0993,-0.1,-0.1032,-0.1089,-0.1092,-0.1095,-0.1114,-0.112,-0.1124,0,0,0,0,0,0,-0.0814,-0.0821,-0.0826,-0.0827,-0.0846,-0.0863,-0.0873,-0.0885,-0.0915,-0.0919,-0.0943,-0.0952,-0.0997,-0.1011,-0.0992,-0.107,-0.1052,-0.1057,-0.1064,-0.107,-0.1074,-0.1061,-0.0997,0,0,0,0,0,-0.0813,-0.0815,-0.0829,-0.0832,-0.0839,-0.0858,-0.0869,-0.0882,-0.0905,-0.0919,-0.0948,-0.098,-0.1012,-0.1037,-0.1063,-0.1105,-0.1102,-0.1132,-0.1136,-0.114,-0.1136,-0.1161,-0.1167,-0.1105,-0.1105,-0.1105,0,0,-0.0812,-0.0816,-0.0818,-0.0832,-0.0845,-0.0861,-0.0866,-0.0885,-0.091,-0.0923,-0.0969,-0.0993,-0.1025,-0.1072,-0.1095,-0.109,-0.1155,-0.1143,-0.1146,-0.114,-0.1165,-0.1171,-0.1176,-0.1107,-0.1107,-0.1106,0,0,-0.0807,-0.0815,-0.0814,-0.0829,-0.0849,-0.0868,-0.0876,-0.0902,-0.0927,-0.0969,-0.0986,-0.1024,-0.1078,-0.1107,-0.1128,-0.1171,-0.1171,-0.1188,-0.1208,-0.1234,-0.1239,-0.1243,-0.1237,-0.1241,-0.1197,-0.1197,-0.1198,0,-0.0808,-0.08,-0.082,-0.0825,-0.0838,-0.0872,-0.0881,-0.0916,-0.0958,-0.0985,-0.0989,-0.107,-0.1094,-0.1152,-0.1168,-0.1181,-0.1184,-0.1185,-0.1238,-0.1243,-0.1247,-0.1239,-0.1243,-0.1199,-0.1199,-0.1199,-0.1198,0,-0.0797,-0.0797,-0.0799,-0.0819,-0.0847,-0.0856,-0.0904,-0.0948,-0.0983,-0.1015,-0.1079,-0.1112,-0.1158,-0.118,-0.1188,-0.1239,-0.1227,-0.1234,-0.1221,-0.1254,-0.1244,-0.1248,-0.1201,-0.12,-0.12,-0.12,0,0,-0.0769,-0.0786,-0.0786,-0.0786,-0.0837,-0.0853,-0.0921,-0.0978,-0.102,-0.1074,-0.1122,-0.1182,-0.1197,-0.122,-0.1241,-0.1269,-0.1295,-0.1266,-0.1267,-0.1251,-0.1333,-0.1234,-0.1228,-0.1316,-0.1317,-0.1318,-0.131,0,-0.0748,-0.074,-0.0771,-0.0784,-0.0781,-0.0851,-0.0913,-0.0981,-0.1044,-0.1106,-0.1159,-0.1208,-0.1215,-0.1238,-0.1268,-0.1293,-0.1308,-0.1295,-0.131,-0.131,-0.1211,-0.123,-0.1322,-0.1312,-0.1313,-0.1314,-0.1314,0,-0.0718,-0.0713,-0.0711,-0.0752,-0.0763,-0.0791,-0.0889,-0.0949,-0.1062,-0.1116,-0.1182,-0.1222,-0.1279,-0.1273,-0.1326,-0.132,-0.1321,-0.1334,-0.1334,-0.1234,-0.1217,-0.1277,-0.132,-0.132,-0.1319,-0.1319,-0.1318,0,-0.0662,-0.0673,-0.0666,-0.0675,-0.0738,-0.0768,-0.082,-0.0939,-0.1,-0.1114,-0.1157,-0.124,-0.1269,-0.1306,-0.1333,-0.1335,-0.1374,-0.138,-0.1288,-0.128,-0.1361,-0.1357,-0.14,-0.14,-0.14,-0.1401,-0.1401,0,-0.0615,-0.0606,-0.0628,-0.062,-0.0639,-0.0709,-0.076,-0.0853,-0.0963,-0.1026,-0.1136,-0.1176,-0.1279,-0.1317,-0.1339,-0.1315,-0.1377,-0.1281,-0.1274,-0.1369,-0.1366,-0.1362,-0.1358,-0.14,-0.14,-0.14,-0.14,0,-0.0555,-0.0569,-0.0556,-0.0593,-0.0608,-0.0623,-0.0708,-0.075,-0.0874,-0.0956,-0.0992,-0.1129,-0.1174,-0.1252,-0.131,-0.1296,-0.1305,-0.1277,-0.1356,-0.1355,-0.1188,-0.1186,-0.1169,-0.1166,-0.1163,-0.116,-0.1158,0,-0.0518,-0.0499,-0.052,-0.052,-0.0528,-0.0553,-0.0583,-0.0699,-0.0742,-0.0908,-0.0928,-0.102,-0.1094,-0.1106,-0.1185,-0.1218,-0.121,-0.121,-0.1211,-0.1172,-0.1167,-0.1168,-0.117,-0.1153,-0.1153,-0.1152,-0.1151,0,-0.0443,-0.0456,-0.0455,-0.0453,-0.0456,-0.0463,-0.0498,-0.0518,-0.066,-0.0768,-0.0863,-0.0931,-0.0971,-0.1037,-0.1071,-0.1094,-0.1219,-0.1179,-0.1186,-0.1186,-0.1152,-0.1151,-0.1155,-0.1141,-0.1142,-0.1143,-0.1144,0,-0.039,-0.0376,-0.0381,-0.0381,-0.0388,-0.0371,-0.0396,-0.0441,-0.0505,-0.07,-0.0711,-0.0837,-0.0944,-0.0967,-0.0995,-0.1016,-0.1006,-0.1003,-0.1018,-0.103,-0.0992,-0.0929,-0.0835,0,0,0,0,0,-0.0317,-0.0307,-0.0309,-0.0297,-0.0306,-0.0306,-0.0351,-0.0386,-0.0496,-0.0546,-0.0645,-0.0696,-0.078,-0.0833,-0.0826,-0.0894,-0.098,-0.0881,-0.0976,-0.1084,-0.1096,-0.1065,0,0,0,0,0,0,-0.0275,-0.0266,-0.0282,-0.0231,-0.0211,-0.02,-0.022,-0.0293,-0.0329,-0.047,-0.0512,-0.0645,-0.0715,-0.0772,-0.0809,-0.0825,-0.0871,-0.0959,-0.0958,-0.1077,-0.1088,-0.1097,-0.107,0,0,0,0,0]},{"header":{"parameterUnit":"m.s-1","parameterCategory":2,"la1":30.2991,"la2":30.254,"lo1":-89.0895,"lo2":-89.0444,"dy":0.0017,"dx":0.0017,"nx":28,"ny":28,"refTime":"2024-03-06T03:00:00:Z","depth":"4","parameterNumber":3,"parameterNumberName":"V-component_of_CURRENTS"},"data":[0,0,0,0,0,0,0,0,0,0,0,0,0,0,0,0,0,0,0,0,0,0,0,0,0,0,0,0,0,0,0,0,0,0,0,0,0,0,0,0,0,0,0,0,0,0,0,0,0,0,0,0,0,0,0,0,0,0,0.0248,0.0248,0,0.023,0.023,0.023,0.0246,0.0246,0.0247,0.0247,0.028,0.028,0.0281,0,0,0,0,0,0,0,0,0,0,0,0,0,0.0268,0.0268,0.0248,0.0248,0.0248,0.023,0.023,0.023,0.0245,0.0246,0.0247,0.0247,0.028,0.028,0.0281,0,0,0,0,0,0,0,0,0,0,0,0,0,0.0257,0.0268,0.0248,0.0252,0.0252,0.023,0.023,0.023,0.0245,0.0246,0.0247,0.0248,0.028,0.028,0.0281,0.0269,0,0,0.0283,0.0283,0,0,0,0,0,0,0,0,0.0258,0.0257,0.0252,0.0252,0.0252,0.024,0.0249,0.0245,0.0245,0.025,0.0247,0.0248,0.027,0.0271,0.0267,0.0271,0.0272,0.0283,0.0283,0.0283,0.0284,0,0,0,0,0,0,0,0.0259,0.0257,0.0243,0.0251,0.0251,0.0245,0.0245,0.0248,0.0258,0.0249,0.025,0.0245,0.027,0.0267,0.0269,0.0273,0.0283,0.0283,0.0284,0.0284,0.0279,0.0279,0,0,0,0,0,0,0.0258,0.0258,0.0243,0.0242,0.0255,0.0244,0.0244,0.0244,0.0257,0.0258,0.0245,0.0246,0.0265,0.0268,0.027,0.0263,0.0283,0.0284,0.0284,0.028,0.0279,0.0279,0,0,0,0,0,0,0.0259,0.0257,0.0244,0.0248,0.0246,0.0243,0.0243,0.0243,0.0242,0.0252,0.0256,0.0243,0.0266,0.0269,0.0267,0.0264,0.0284,0.0285,0.028,0.028,0.0279,0.0245,0,0,0,0,0,0,0.026,0.0258,0.026,0.0248,0.0246,0.0223,0.0242,0.0242,0.0237,0.0239,0.0252,0.0256,0.0267,0.0266,0.0268,0.0265,0.0285,0.0281,0.028,0.0279,0.0247,0.0244,0.0241,0,0,0,0,0,0.026,0.0254,0.026,0.0258,0.0248,0.0222,0.0219,0.0221,0.0236,0.0225,0.0237,0.0255,0.0262,0.0265,0.0268,0.0266,0.0282,0.028,0.0279,0.0249,0.0244,0.0241,0,0,0,0,0,0,0.0261,0.0254,0.0261,0.0253,0.0236,0.0224,0.0214,0.0218,0.0218,0.0225,0.0244,0.0247,0.0245,0.0257,0.0261,0.0262,0.0277,0.0276,0.0253,0.0249,0.0246,0.0239,0.0286,0,0,0,0,0,0.0262,0.0259,0.0246,0.0239,0.023,0.0224,0.0216,0.0214,0.0211,0.0212,0.0221,0.0234,0.024,0.0246,0.0249,0.0248,0.0279,0.0249,0.0246,0.0243,0.0239,0.0296,0.0298,0.0275,0.0275,0.0275,0,0,0.026,0.0256,0.0254,0.0239,0.0229,0.0199,0.0221,0.0202,0.0188,0.0216,0.0204,0.0218,0.0235,0.0232,0.0233,0.0244,0.0263,0.0242,0.0239,0.0237,0.0295,0.0297,0.0299,0.0274,0.0275,0.0275,0,0,0.0238,0.0249,0.023,0.0211,0.0191,0.0185,0.0178,0.0163,0.017,0.0155,0.0177,0.019,0.0191,0.0208,0.0217,0.0198,0.0241,0.0201,0.0184,0.0239,0.0241,0.0244,0.0278,0.0284,0.0204,0.0204,0.0204,0,0.0234,0.0209,0.0218,0.0185,0.0162,0.0175,0.0136,0.014,0.0129,0.0136,0.0146,0.0164,0.018,0.0192,0.0185,0.0192,0.0224,0.0198,0.0236,0.0239,0.0243,0.0277,0.0284,0.0202,0.0202,0.0203,0.0203,0,0.0188,0.0164,0.0147,0.0114,0.0095,0.0062,0.006,0.0058,0.0072,0.0081,0.0095,0.012,0.0135,0.0145,0.0157,0.0187,0.0201,0.0223,0.0248,0.0243,0.0279,0.0287,0.02,0.02,0.0201,0.0201,0,0,0.0178,0.0125,0.0117,0.0084,0.0052,0.0027,0.0014,0.0004,0.0003,0.0023,0.003,0.0053,0.0085,0.0097,0.0127,0.0174,0.0224,0.0206,0.021,0.0242,0.0336,0.029,0.0295,0.0261,0.0262,0.0264,0.0348,0,0.0133,0.0064,0.0047,-0.0024,-0.0063,-0.0063,-0.008,-0.0077,-0.0057,-0.0042,0.0018,0.0033,0.0064,0.0077,0.0129,0.0203,0.0246,0.0198,0.0333,0.0336,0.03,0.0303,0.0268,0.0354,0.0356,0.0358,0.0359,0,0.0085,0.0045,-0.0027,-0.0092,-0.011,-0.0145,-0.0164,-0.0177,-0.0137,-0.0115,-0.0072,-0.0025,0.0042,0.0072,0.0203,0.0175,0.0245,0.0306,0.0311,0.0286,0.0305,0.0363,0.0374,0.0373,0.0372,0.0371,0.037,0,0.0075,-0.0012,-0.0066,-0.0093,-0.0155,-0.018,-0.0205,-0.0194,-0.0197,-0.015,-0.0138,-0.0051,-0.0004,0.0105,0.0221,0.0223,0.0368,0.039,0.0412,0.041,0.0442,0.0439,0.0479,0.0479,0.0479,0.0478,0.0478,0,0.0033,-0.0016,-0.0077,-0.0111,-0.0174,-0.0207,-0.0251,-0.025,-0.0243,-0.0235,-0.0171,-0.0139,0.001,0.0108,0.0217,0.0333,0.037,0.0405,0.043,0.0423,0.0416,0.0448,0.0443,0.0482,0.0481,0.048,0.048,0,0.003,-0.001,-0.0078,-0.0152,-0.0179,-0.0217,-0.0287,-0.0311,-0.03,-0.0284,-0.0267,-0.0184,-0.006,0.0072,0.0251,0.0315,0.0438,0.0467,0.0433,0.0455,0.0444,0.0437,0.0506,0.0505,0.0504,0.0503,0.0503,0,0.0026,-0.0009,-0.0094,-0.0126,-0.0164,-0.0231,-0.0275,-0.0319,-0.0336,-0.0305,-0.029,-0.0192,-0.0117,0.0093,0.0226,0.041,0.043,0.0481,0.0473,0.043,0.0449,0.0442,0.0436,0.0502,0.0502,0.0501,0.0501,0,0.0017,-0.0007,-0.0058,-0.0119,-0.0181,-0.0254,-0.0317,-0.0341,-0.0367,-0.0362,-0.0293,-0.0194,-0.0071,0.0088,0.0212,0.035,0.0446,0.0474,0.0477,0.047,0.0427,0.0444,0.0439,0.0499,0.0499,0.0499,0.0499,0,0.003,-0.0004,-0.0058,-0.0111,-0.0173,-0.0236,-0.0299,-0.0331,-0.036,-0.0333,-0.0303,-0.0176,-0.0098,0.0056,0.0185,0.0295,0.0325,0.0361,0.037,0.0374,0.0301,0.0225,0.0256,0,0,0,0,0,0.006,0.0023,-0.0042,-0.0108,-0.0165,-0.019,-0.0295,-0.0353,-0.0387,-0.034,-0.0324,-0.0206,-0.0035,0.0035,0.0141,0.0168,0.0339,0.0292,0.0384,0.0485,0.0487,0.0418,0,0,0,0,0,0,0.0072,0.0024,-0.0032,-0.0077,-0.0094,-0.0175,-0.0229,-0.0278,-0.0267,-0.0271,-0.0183,-0.0152,0.001,-0.005,0.0173,0.0199,0.0269,0.0369,0.0371,0.0483,0.0486,0.0488,0.0418,0,0,0,0,0]}]]